sat.trackr.live / text

‹ back to catalog

SKYBEE-A01

NORAD 62671 · 2025-009BQ

PAYLOAD ACTIVE UNKNOWN

§ Identity

Operator
Country
GER
Launch date
2025-01-14
Launch site
AFWTR
Launch vehicle
Mass (kg)
RCS (m²)

External: N2YO · Heavens-Above · Gunter

§ Orbital elements

Epoch: 2026-05-25T04:33:37.996704Z

Period
94.68 min
Inclination
97.3987°
Eccentricity
0.0006699
Mean motion
15.20876937 rev/d
Perigee alt
498.6 km
Apogee alt
507.8 km
Semi-major
6,881.3 km
B*
1.0781e-4
RAAN
224.1814°
Arg perigee
63.9979°
Mean anomaly
296.1946°
Rev number
13,284

§ Raw data

SKYBEE-A011 62671U 25009BQ  26145.19002311  .00002314  00000+0  10781-3 0  99922 62671  97.3987 224.1814 0006699  63.9979 296.1946 15.20876937132845

JSON: /api/v1/satellites/62671 · /tle

For live sub-satellite position, see the globe view (requires WebGL).

§ Visibility from observer

Set your observer location to see the next 7 days of passes ≥ 10°. The values pass through the URL so the page stays shareable.

No JS? Fill the form by hand. The geolocation button needs JavaScript.

§ Radio — SatNOGS DB

ModeDescriptionDownlinkUplink
FM Mode S - Transmitter 2.228 GHz
FM Mode U - Transmitter 401.050 MHz
FM Mode X - Transmitter 8.330 GHz

3 transmitters · refreshed weekly from db.satnogs.org